{"data":{"norad_id":57074,"epoch":"2026-05-25T00:18:27.978048Z","epoch_age_seconds":64082,"freshness":"FRESH","line1":"1 57074U 23088AC  26145.01282382  .00000980  00000+0  45124-4 0  9994","line2":"2 57074  43.0045  43.1511 0000905 239.1450 120.9313 15.27583537161962","mean_motion":15.27583537,"eccentricity":9.05e-5,"inclination_deg":43.0045,"raan_deg":43.1511,"arg_perigee_deg":239.145,"mean_anomaly_deg":120.9313,"bstar":4.5124e-5,"rev_number":16196,"period_min":94.26653044638,"perigee_km":482.41756862646,"apogee_km":483.65944139286,"semimajor_km":6861.1755050097,"source":"CELESTRAK","updated_at":"2026-05-25T13:38:18.214266Z"}}